Location: Augustenthal
(51.7167°N, 10.2833°E)
Time: 21:26:02
(UTC+00:00)

Lacrosse 5 - Pass Details

Date: 18 May 2021
Orbit: 715 x 724 km, 57.0° (Epoch: 15 June)

Event Time Altitude Azimuth Distance (km) Brightness Sun altitude
Exits shadow 21:09:41 16° 120° (ESE) 1,830 3.5 -13.4°
Drops below altitude 10° 21:12:24 10° 87° (E) 2,202 4.1 -13.6°
Sets 21:15:38 0° 66° (ENE) 3,129 5.1 -13.9°
